User: anonymous   Login
Location: Unspecified
(0.0000°N, 0.0000°E)
Time: 19:33:23
(UTC+00:00)
Language:

BREEZE-M R/B - Orbit

View from above orbital plane
View from above orbital plane
View from above satellite
View from above satellite

Ground track
Ground track

The orbit data is extracted from the following two-line orbital elements,

1 39173U 13026B   22274.45947249 -.00000071  00000-0  00000-0 0  9995
2 39173  28.9407  61.6611 7681974   9.1445 358.9757  1.10512736 37270
Epoch (UTC): 01 October 2022 11:01:38
Eccentricity: 0.7681974
inclination: 28.9407°
perigee height: 2782 km
apogee height: 63496 km
right ascension of ascending node: 61.6611°
argument of perigee: 9.1445°
revolutions per day: 1.10512736
mean anomaly at epoch: 358.9757°
orbit number at epoch: 3727

The dashed part of the orbit path shows where the satellite is in the earth's shadow,  

DLR